Showing default

YUNYAO-1 46, 63347

Orbit data source: Space-Track

YUNYAO-1 46, 63347 is a payload satellite owned by Yunyao yuhang (CN) in SSO that was launched on Fri, 21 Mar 2025 UTC via a GUSHENXING 1 launch vehicle from the Jiuquan Satellite Launch Center, China (JSC). Payload-class satellites include a variety of spacecraft equipped with specific instruments for various scientific and technological missions. These include communications satellites like Starlink; space stations such as the ISS; scientific satellites like the Hubble; Earth observation satellites from companies like Planet Labs, Umbra, and HawkEye 360; GPS; miniature CubeSats for education and research; and military/defense satellites.

Loading next visibility...
Identifier
63347, 2025-059D
Orbit
SSO
Last TLE update
7 hours ago
Origin
Manufacturer
Changguang WJ
Mission
Operational spacecraft
Bus & Motor
YY-1, Unknown motor
Mass
~50 kg wet, ~50 kg dry
Launch date (UTC)
2025-03-21 (3 months ago)
Launch vehicle
GUSHENXING 1
Launch site
Jiuquan Satellite Launch Center, China (JSC)
Object type
Payload
Rocket body
Debris
Shape & HBR
Unknown
Radar Cross Section
Medium (>0.1 m² and <1 m²)

Expand to show TLE details & history

TLE from 7 hours ago
0 YUNYAO-1 46
1 63347U 25059D   25183.94942684  .00002264  00000-0  15173-3 0  9993
2 63347  97.6022   3.1571 0011163 260.2632  99.7335 15.07845589 15612
Epoch: 2025-07-02T22:47Z
TLE epoch observation values (Epoch: 2025-07-02T22:47:10.478Z)
Latitude
-0.00009°
Longitude
100.14026°
Altitude
547.168 km
Speed
7.588 km/s
True Right ascension
00h 12m 37s
True Declination
0° 00' 00"
Sunlit
Object was in daylight at epoch
Visualization orbit readout
Latitude
46.87974°
Longitude
-71.42422°
Altitude
554.674 km
Speed
7.586 km/s
Apparent Right ascension
09h 03m 13s
Apparent Declination
9° 47' 38"
Sunlit
Object is in daylight
Visualization observer readout
Local Sidereal Time
17:30:13
Azimuth
302.797° NW
Elevation
-20.064°
Doppler factor
1
Orbital elements
Apogee altitude
547.498 km
Perigee altitude
532.053 km
Semi-major axis
6,917.912 km
Eccentricity
0.00112
Inclination
97.6022°
RAAN
3.1571°
Arg. of periapsis
260.2632°
True anomaly
Unknown
Mean anomaly
99.7335°
Eccentric anomaly
Unknown
Mean motion
3.77208 °/min
Orbital period
95.44 mins
BSTAR
0.00015173
Loading maneuver chart data...
Loading SW <> Apogee altitude chart data...
Loading historical data...
Loading historical data...
Loading historical data...
Loading historical data...
Loading historical data...
Loading historical data...
Loading historical data...
Other satellites on launch #59 in the year 2025 (2025-03-21 UTC)

YUNYAO-1 46 Visibility forecast

Observer location: undefined°, undefined°

Span
Click to sort rows by Start time (UTC) header in descending order
Start Az.
Max El. time (UTC)
Max El. Az.
Max El.
End time (UTC)
End Az.
6 mins2025-07-03 11:39:39.825Z145.203° SSE2025-07-03 11:42:39.825Z70.395° E37.269°2025-07-03 11:45:39.825Z2.21° NNE
6 mins2025-07-04 00:50:39.825Z12.849° NNE2025-07-04 00:53:39.825Z188.938° SSW43.353°2025-07-04 00:56:39.825Z192.729° SSW
|